Year,Month,Day,Hour,Minute,Value (Times are PST for temperature in C)
2007,12,04,00,02,12.80
2007,12,04,01,02,12.50
2007,12,04,02,02,12.90
2007,12,04,03,02,12.20
2007,12,04,04,02,11.90
2007,12,04,05,02,11.60
2007,12,04,06,02,11.20
2007,12,04,07,02,11.10
2007,12,04,08,02,10.90
2007,12,04,09,02,10.90
2007,12,04,10,02,11.20
2007,12,04,11,02,11.60
2007,12,04,11,55,11.20
2007,12,04,11,56,11.20
2007,12,04,11,57,11.20
2007,12,04,11,58,11.20
2007,12,04,11,59,11.20
2007,12,04,12,00,11.20
2007,12,04,12,01,11.10
2007,12,04,12,02,11.10
2007,12,04,12,03,11.20
2007,12,04,12,04,11.20
2007,12,04,12,05,11.20
2007,12,04,12,06,11.10
2007,12,04,12,07,11.10
2007,12,04,12,08,11.10
2007,12,04,12,09,11.10
2007,12,04,12,10,11.10
2007,12,04,12,12,11.10
2007,12,04,12,14,11.10
2007,12,04,12,15,11.10
2007,12,04,12,16,11.10
2007,12,04,12,17,11.10
2007,12,04,12,18,11.10
2007,12,04,12,19,11.10
2007,12,04,12,20,11.10
2007,12,04,12,21,11.10
2007,12,04,12,22,11.10
2007,12,04,12,23,11.10
2007,12,04,12,24,11.10
2007,12,04,12,25,11.10
2007,12,04,12,26,11.10
2007,12,04,12,27,11.10
2007,12,04,12,28,11.10
2007,12,04,12,29,11.10
2007,12,04,12,30,11.10
2007,12,04,12,31,11.10
2007,12,04,12,32,11.10
2007,12,04,12,33,11.10
2007,12,04,12,34,11.10
2007,12,04,12,35,11.10
2007,12,04,12,36,11.10
2007,12,04,12,37,11.10
2007,12,04,12,38,11.00
2007,12,04,12,39,11.00
2007,12,04,12,40,11.00
2007,12,04,12,41,11.00
2007,12,04,12,42,10.90
2007,12,04,12,43,10.90
2007,12,04,12,44,10.90
2007,12,04,12,45,10.90
2007,12,04,12,46,10.90
2007,12,04,12,47,10.90
2007,12,04,12,48,10.90
2007,12,04,12,49,10.90
2007,12,04,12,50,10.90
2007,12,04,12,51,10.90
2007,12,04,12,52,10.90
2007,12,04,12,53,10.90
2007,12,04,12,54,10.90
2007,12,04,12,55,10.90
2007,12,04,12,56,10.90
2007,12,04,12,57,10.90
2007,12,04,12,58,10.90
2007,12,04,12,59,10.90
2007,12,04,13,00,10.90
2007,12,04,13,01,10.90
2007,12,04,13,02,10.90
2007,12,04,13,03,10.90
2007,12,04,13,04,10.90
2007,12,04,13,05,11.00
2007,12,04,13,06,10.90
2007,12,04,13,07,11.00
2007,12,04,13,08,11.00
2007,12,04,13,09,11.00
2007,12,04,13,10,11.00
2007,12,04,13,11,11.00
2007,12,04,13,12,11.00
2007,12,04,13,13,11.10
2007,12,04,13,14,11.10
2007,12,04,13,16,11.10
2007,12,04,13,17,11.10
2007,12,04,13,18,11.10
2007,12,04,13,19,11.10
2007,12,04,13,20,11.10
2007,12,04,13,21,11.10
2007,12,04,13,22,11.10
2007,12,04,13,23,11.10
2007,12,04,13,24,11.10
2007,12,04,13,25,11.10
2007,12,04,13,26,11.10
2007,12,04,13,27,11.10
2007,12,04,13,28,11.10
2007,12,04,13,29,11.10
2007,12,04,13,30,11.00
2007,12,04,13,31,11.10
2007,12,04,13,32,11.00
2007,12,04,13,33,11.00
2007,12,04,13,34,11.00
2007,12,04,13,35,11.00
2007,12,04,13,36,11.00
2007,12,04,13,37,11.00
2007,12,04,13,38,11.00
2007,12,04,13,39,11.00
2007,12,04,13,40,10.90
2007,12,04,13,41,10.90
2007,12,04,13,42,10.90
2007,12,04,13,43,10.90
2007,12,04,13,44,10.90
2007,12,04,13,45,10.90
2007,12,04,13,46,10.90
2007,12,04,13,47,10.90
2007,12,04,13,48,10.90
2007,12,04,13,49,10.90
2007,12,04,13,50,10.90
2007,12,04,13,51,10.90
2007,12,04,13,52,10.90
2007,12,04,13,53,10.90
2007,12,04,13,54,10.80
2007,12,04,13,55,10.80
2007,12,04,13,56,10.80
2007,12,04,13,57,10.80
2007,12,04,13,58,10.80
2007,12,04,13,59,10.80
2007,12,04,14,00,10.80
2007,12,04,14,01,10.80
2007,12,04,14,02,10.80
2007,12,04,14,03,10.80
2007,12,04,14,04,10.80
2007,12,04,14,05,10.80
2007,12,04,14,06,10.80
2007,12,04,14,07,10.80
2007,12,04,14,08,10.80
2007,12,04,14,09,10.80
2007,12,04,14,10,10.80
2007,12,04,14,11,10.80
2007,12,04,14,12,10.80
2007,12,04,14,13,10.80
2007,12,04,14,14,10.80
2007,12,04,14,15,10.80
2007,12,04,14,17,10.80
2007,12,04,14,18,10.80
2007,12,04,14,19,10.80
2007,12,04,14,20,10.80
2007,12,04,14,21,10.80
2007,12,04,14,22,10.80
2007,12,04,14,23,10.80
2007,12,04,14,24,10.80
2007,12,04,14,25,10.80
2007,12,04,14,26,10.80
2007,12,04,14,27,10.80
2007,12,04,14,28,10.80
2007,12,04,14,29,10.70
2007,12,04,14,30,10.70
2007,12,04,14,31,10.80
2007,12,04,14,32,10.70
2007,12,04,14,33,10.70
2007,12,04,14,34,10.70
2007,12,04,14,35,10.70
2007,12,04,14,36,10.70
2007,12,04,14,37,10.70
2007,12,04,14,38,10.70
2007,12,04,14,39,10.70
2007,12,04,14,40,10.70
2007,12,04,14,41,10.70
2007,12,04,14,42,10.70
2007,12,04,14,44,10.70
2007,12,04,14,45,10.70
2007,12,04,14,46,10.70
2007,12,04,14,47,10.70
2007,12,04,14,48,10.70
2007,12,04,14,49,10.70
2007,12,04,14,50,10.70
2007,12,04,14,51,10.70
2007,12,04,14,52,10.70
2007,12,04,14,53,10.70
2007,12,04,14,54,10.70
2007,12,04,14,55,10.70
2007,12,04,14,56,10.60
2007,12,04,14,57,10.60
2007,12,04,14,58,10.60
2007,12,04,14,59,10.60
2007,12,04,15,00,10.60
2007,12,04,15,01,10.60
2007,12,04,15,02,10.60
2007,12,04,15,03,10.60
2007,12,04,15,04,10.60
2007,12,04,15,05,10.60
2007,12,04,15,06,10.60
2007,12,04,15,07,10.60
2007,12,04,15,08,10.60
2007,12,04,15,09,10.60
2007,12,04,15,10,10.60
2007,12,04,15,11,10.60
2007,12,04,15,12,10.60
2007,12,04,15,13,10.50
2007,12,04,15,14,10.50
2007,12,04,15,15,10.50
2007,12,04,15,16,10.50
2007,12,04,15,17,10.50
2007,12,04,15,18,10.50
2007,12,04,15,19,10.50
2007,12,04,15,20,10.50
2007,12,04,15,21,10.40
2007,12,04,15,22,10.40
2007,12,04,15,23,10.40
2007,12,04,15,24,10.40
2007,12,04,15,25,10.40
2007,12,04,15,26,10.40
2007,12,04,15,27,10.40
2007,12,04,15,28,10.40
2007,12,04,15,29,10.40
2007,12,04,15,30,10.40
2007,12,04,15,31,10.40
2007,12,04,15,32,10.40
2007,12,04,15,33,10.40
2007,12,04,15,34,10.40
2007,12,04,15,35,10.30
2007,12,04,15,36,10.30
2007,12,04,15,37,10.30
2007,12,04,15,38,10.30
2007,12,04,15,39,10.30
2007,12,04,15,40,10.30
2007,12,04,15,41,10.30
2007,12,04,15,42,10.30
2007,12,04,15,43,10.30
2007,12,04,15,44,10.20
2007,12,04,15,45,10.20
2007,12,04,15,46,10.20
2007,12,04,15,47,10.20
2007,12,04,15,48,10.20
2007,12,04,15,49,10.20
2007,12,04,15,50,10.20
2007,12,04,15,51,10.20
2007,12,04,15,52,10.20
2007,12,04,15,53,10.10
2007,12,04,15,54,10.10
2007,12,04,15,55,10.10
2007,12,04,15,56,10.10
2007,12,04,15,57,10.10
2007,12,04,15,58,10.10
2007,12,04,15,59,10.10
2007,12,04,16,00,10.10
2007,12,04,16,01,10.10
2007,12,04,16,02,10.10
2007,12,04,16,03,10.10
2007,12,04,16,04,10.10
2007,12,04,16,05,10.00
2007,12,04,16,06,10.00
2007,12,04,16,07,10.00
2007,12,04,16,08,10.00
2007,12,04,16,09,10.00
2007,12,04,16,10,9.90
2007,12,04,16,11,9.90
2007,12,04,16,12,9.90
2007,12,04,16,13,9.90
2007,12,04,16,14,9.90
2007,12,04,16,15,9.90
2007,12,04,16,16,9.90
2007,12,04,16,17,9.90
2007,12,04,16,18,9.90
2007,12,04,16,19,9.90
2007,12,04,16,20,9.90
2007,12,04,16,21,9.80
2007,12,04,16,22,9.80
2007,12,04,16,23,9.80
2007,12,04,16,24,9.80
2007,12,04,16,25,9.80
2007,12,04,16,26,9.80
2007,12,04,16,27,9.80
2007,12,04,16,28,9.80
2007,12,04,16,29,9.80
2007,12,04,16,30,9.80
2007,12,04,16,31,9.80
2007,12,04,16,32,9.80
2007,12,04,16,33,9.80
2007,12,04,16,34,9.80
2007,12,04,16,35,9.80
2007,12,04,16,36,9.80
2007,12,04,16,37,9.80
2007,12,04,16,38,9.80
2007,12,04,16,39,9.80
2007,12,04,16,40,9.80
2007,12,04,16,41,9.80
2007,12,04,16,42,9.80
2007,12,04,16,43,9.80
2007,12,04,16,44,9.80
2007,12,04,16,45,9.80
2007,12,04,16,46,9.80
2007,12,04,16,47,9.80
2007,12,04,16,48,9.80
2007,12,04,16,49,9.80
2007,12,04,16,50,9.80
2007,12,04,16,51,9.80
2007,12,04,16,52,9.80
2007,12,04,16,53,9.80
2007,12,04,16,54,9.80
2007,12,04,16,55,9.80
2007,12,04,16,56,9.80
2007,12,04,16,57,9.80
2007,12,04,16,58,9.80
2007,12,04,16,59,9.80
2007,12,04,17,00,9.80
2007,12,04,17,01,9.80
2007,12,04,17,02,9.80
2007,12,04,17,03,9.70
2007,12,04,17,04,9.80
2007,12,04,17,05,9.80
2007,12,04,17,06,9.70
2007,12,04,17,07,9.80
2007,12,04,17,08,9.80
2007,12,04,17,09,9.70
2007,12,04,17,10,9.70
2007,12,04,17,11,9.70
2007,12,04,17,12,9.70
2007,12,04,17,13,9.70
2007,12,04,17,14,9.70
2007,12,04,17,15,9.70
2007,12,04,17,16,9.70
2007,12,04,17,17,9.70
2007,12,04,17,18,9.70
2007,12,04,17,19,9.70
2007,12,04,17,20,9.70
2007,12,04,17,21,9.70
2007,12,04,17,22,9.70
2007,12,04,17,23,9.70
2007,12,04,17,24,9.70
2007,12,04,17,25,9.70
2007,12,04,17,26,9.70
2007,12,04,17,27,9.70
2007,12,04,17,28,9.70
2007,12,04,17,29,9.70
2007,12,04,17,30,9.70
2007,12,04,17,31,9.70
2007,12,04,17,33,9.70
2007,12,04,17,34,9.70
2007,12,04,17,35,9.70
2007,12,04,17,36,9.70
2007,12,04,17,37,9.70
2007,12,04,17,38,9.70
2007,12,04,17,39,9.70
2007,12,04,17,40,9.70
2007,12,04,17,41,9.70
2007,12,04,17,42,9.70
2007,12,04,17,43,9.70
2007,12,04,17,44,9.70
2007,12,04,17,45,9.70
2007,12,04,17,46,9.70
2007,12,04,17,47,9.70
2007,12,04,17,48,9.70
2007,12,04,17,49,9.70
2007,12,04,17,50,9.70
2007,12,04,17,51,9.70
2007,12,04,17,52,9.70
2007,12,04,17,53,9.70
2007,12,04,17,54,9.70
2007,12,04,17,55,9.70
2007,12,04,17,56,9.70
2007,12,04,17,57,9.70
2007,12,04,17,58,9.70
2007,12,04,17,59,9.70
2007,12,04,18,00,9.70
2007,12,04,18,01,9.70
2007,12,04,18,02,9.70
2007,12,04,18,03,9.70
2007,12,04,18,04,9.70
2007,12,04,18,05,9.70
2007,12,04,18,06,9.60
2007,12,04,18,07,9.60
2007,12,04,18,08,9.60
2007,12,04,18,09,9.60
2007,12,04,18,10,9.60
2007,12,04,18,11,9.60
2007,12,04,18,12,9.60
2007,12,04,18,13,9.60
2007,12,04,18,14,9.60
2007,12,04,18,15,9.60
2007,12,04,18,16,9.60
2007,12,04,18,17,9.50
2007,12,04,18,18,9.50
2007,12,04,18,19,9.50
2007,12,04,18,20,9.50
2007,12,04,18,21,9.50
2007,12,04,18,22,9.50
2007,12,04,18,23,9.40
2007,12,04,18,24,9.40
2007,12,04,18,25,9.40
2007,12,04,18,26,9.40
2007,12,04,18,27,9.40
2007,12,04,18,28,9.40
2007,12,04,18,29,9.40
2007,12,04,18,30,9.40
2007,12,04,18,31,9.40
2007,12,04,18,32,9.30
2007,12,04,18,33,9.30
2007,12,04,18,34,9.30
2007,12,04,18,35,9.30
2007,12,04,18,36,9.30
2007,12,04,18,37,9.30
2007,12,04,18,38,9.30
2007,12,04,18,39,9.30
2007,12,04,18,40,9.30
2007,12,04,18,41,9.30
2007,12,04,18,42,9.30
2007,12,04,18,43,9.30
2007,12,04,18,44,9.30
2007,12,04,18,45,9.30
2007,12,04,18,46,9.30
2007,12,04,18,47,9.30
2007,12,04,18,48,9.30
2007,12,04,18,49,9.30
2007,12,04,18,50,9.30
2007,12,04,18,51,9.30
2007,12,04,18,52,9.30
2007,12,04,18,53,9.30
2007,12,04,18,54,9.30
2007,12,04,18,55,9.30
2007,12,04,18,56,9.30
2007,12,04,18,57,9.30
2007,12,04,18,58,9.30
2007,12,04,18,59,9.30
2007,12,04,19,00,9.30
2007,12,04,19,01,9.30
2007,12,04,19,02,9.30
2007,12,04,19,03,9.30
2007,12,04,19,04,9.30
2007,12,04,19,05,9.30
2007,12,04,19,06,9.30
2007,12,04,19,07,9.30
2007,12,04,19,08,9.20
2007,12,04,19,09,9.20
2007,12,04,19,10,9.20
2007,12,04,19,11,9.20
2007,12,04,19,12,9.30
2007,12,04,19,13,9.20
2007,12,04,19,14,9.20
2007,12,04,19,15,9.20
2007,12,04,19,16,9.20
2007,12,04,19,17,9.20
2007,12,04,19,18,9.20
2007,12,04,19,19,9.20
2007,12,04,19,20,9.20
2007,12,04,19,21,9.20
2007,12,04,19,22,9.20
2007,12,04,19,23,9.20
2007,12,04,19,24,9.20
2007,12,04,19,25,9.20
2007,12,04,19,26,9.20
2007,12,04,19,27,9.20
2007,12,04,19,28,9.20
2007,12,04,19,29,9.20
2007,12,04,19,30,9.20
2007,12,04,19,31,9.20
2007,12,04,19,32,9.20
2007,12,04,19,33,9.20
2007,12,04,19,34,9.20
2007,12,04,19,35,9.20
2007,12,04,19,36,9.20
2007,12,04,19,37,9.10
2007,12,04,19,38,9.10
2007,12,04,19,39,9.10
2007,12,04,19,40,9.10
2007,12,04,19,41,9.10
2007,12,04,19,42,9.10
2007,12,04,19,43,9.10
2007,12,04,19,44,9.10
2007,12,04,19,45,9.10
2007,12,04,19,46,9.10
2007,12,04,19,47,9.10
2007,12,04,19,48,9.00
2007,12,04,19,49,9.00
2007,12,04,19,50,9.00
2007,12,04,19,51,8.90
2007,12,04,19,52,8.90
2007,12,04,19,53,8.90
2007,12,04,19,54,8.90
2007,12,04,19,55,8.90
2007,12,04,19,56,8.90
2007,12,04,19,57,8.90
2007,12,04,19,58,8.90
2007,12,04,19,59,8.90
2007,12,04,20,00,8.90
2007,12,04,20,01,8.90
2007,12,04,20,02,8.90
2007,12,04,20,03,8.90
2007,12,04,20,04,8.90
2007,12,04,20,05,8.90
2007,12,04,20,06,8.90
2007,12,04,20,07,8.90
2007,12,04,20,08,8.90
2007,12,04,20,09,8.90
2007,12,04,20,10,8.90
2007,12,04,20,11,8.90
2007,12,04,20,12,8.90
2007,12,04,20,13,8.90
2007,12,04,20,14,8.90
2007,12,04,20,15,8.90
2007,12,04,20,16,8.90
2007,12,04,20,17,8.80
2007,12,04,20,18,8.80
2007,12,04,20,19,8.80
2007,12,04,20,20,8.80
2007,12,04,20,21,8.80
2007,12,04,20,22,8.80
2007,12,04,20,23,8.80
2007,12,04,20,24,8.80
2007,12,04,20,25,8.80
2007,12,04,20,26,8.80
2007,12,04,20,27,8.80
2007,12,04,20,28,8.80
2007,12,04,20,29,8.80
2007,12,04,20,30,8.80
2007,12,04,20,31,8.80
2007,12,04,20,32,8.90
2007,12,04,20,33,8.90
2007,12,04,20,34,8.90
2007,12,04,20,35,8.90
2007,12,04,20,36,8.90
2007,12,04,20,37,8.90
2007,12,04,20,38,8.90
2007,12,04,20,39,8.90
2007,12,04,20,40,8.90
2007,12,04,20,41,8.90
2007,12,04,20,42,8.90
2007,12,04,20,43,8.90
2007,12,04,20,44,8.90
2007,12,04,20,45,8.90
2007,12,04,20,46,8.90
2007,12,04,20,47,8.90
2007,12,04,20,48,8.90
2007,12,04,20,49,8.90
2007,12,04,20,50,8.90
2007,12,04,20,51,8.90
2007,12,04,20,52,8.90
2007,12,04,20,53,8.80
2007,12,04,20,54,8.80
2007,12,04,20,55,8.80
2007,12,04,20,57,8.80
2007,12,04,20,58,8.80
2007,12,04,20,59,8.80
2007,12,04,21,00,8.80
2007,12,04,21,01,8.80
2007,12,04,21,02,8.80
2007,12,04,21,03,8.70
2007,12,04,21,04,8.70
2007,12,04,21,05,8.70
2007,12,04,21,06,8.70
2007,12,04,21,07,8.70
2007,12,04,21,08,8.70
2007,12,04,21,09,8.70
2007,12,04,21,10,8.70
2007,12,04,21,11,8.70
2007,12,04,21,12,8.70
2007,12,04,21,14,8.60
2007,12,04,21,15,8.60
2007,12,04,21,16,8.60
2007,12,04,21,18,8.60
2007,12,04,21,20,8.60
2007,12,04,21,21,8.60
2007,12,04,21,22,8.60
2007,12,04,21,23,8.60
2007,12,04,21,24,8.60
2007,12,04,21,26,8.60
2007,12,04,21,28,8.60
2007,12,04,21,30,8.50
2007,12,04,21,32,8.50
2007,12,04,21,33,8.50
2007,12,04,21,35,8.50
2007,12,04,21,36,8.50
2007,12,04,21,38,8.40
2007,12,04,21,41,8.40
2007,12,04,21,43,8.40
2007,12,04,21,45,8.40
2007,12,04,21,47,8.30
2007,12,04,21,49,8.30
2007,12,04,21,52,8.30
2007,12,04,21,54,8.30
2007,12,04,21,55,8.20
2007,12,04,21,57,8.20
2007,12,04,21,59,8.20
2007,12,04,22,01,8.20
2007,12,04,22,02,8.20
2007,12,04,22,03,8.10
2007,12,04,22,05,8.10
2007,12,04,22,06,8.10
2007,12,04,22,08,8.10
2007,12,04,22,10,8.10
2007,12,04,22,11,8.00
2007,12,04,22,12,8.00
2007,12,04,22,14,8.00
2007,12,04,22,16,8.00
2007,12,04,22,18,8.00
2007,12,04,22,20,7.90
2007,12,04,22,22,7.90
2007,12,04,22,24,7.90
2007,12,04,22,25,7.90
2007,12,04,22,27,7.90
2007,12,04,22,29,7.90
2007,12,04,22,31,7.90
2007,12,04,22,32,7.90
2007,12,04,22,34,7.80
2007,12,04,22,35,7.80
2007,12,04,22,37,7.80
2007,12,04,22,38,7.80
2007,12,04,22,39,7.80
2007,12,04,22,40,7.80
2007,12,04,22,42,7.80
2007,12,04,22,43,7.80
2007,12,04,22,44,7.80
2007,12,04,22,45,7.80
2007,12,04,22,46,7.80
2007,12,04,22,47,7.80
2007,12,04,22,48,7.80
2007,12,04,22,50,7.80
2007,12,04,22,53,7.80
2007,12,04,22,54,7.80
2007,12,04,22,55,7.70
2007,12,04,22,56,7.80
2007,12,04,22,57,7.70
2007,12,04,22,58,7.80
2007,12,04,22,59,7.80
2007,12,04,23,00,7.80
2007,12,04,23,01,7.80
2007,12,04,23,03,7.80
2007,12,04,23,04,7.80
2007,12,04,23,05,7.80
2007,12,04,23,06,7.80
2007,12,04,23,07,7.80
2007,12,04,23,08,7.90
2007,12,04,23,09,7.90
2007,12,04,23,10,7.90
2007,12,04,23,11,7.90
2007,12,04,23,12,7.90
2007,12,04,23,14,7.90
2007,12,04,23,15,7.90
2007,12,04,23,16,7.90
2007,12,04,23,17,7.90
2007,12,04,23,18,7.90
2007,12,04,23,19,7.90
2007,12,04,23,20,7.90
2007,12,04,23,21,7.90
2007,12,04,23,22,7.90
2007,12,04,23,23,7.90
2007,12,04,23,24,7.90
2007,12,04,23,25,7.90
2007,12,04,23,26,7.90
2007,12,04,23,27,7.90
2007,12,04,23,28,7.90
2007,12,04,23,29,7.90
2007,12,04,23,30,7.90
2007,12,04,23,31,7.90
2007,12,04,23,32,7.90
2007,12,04,23,33,7.90
2007,12,04,23,34,7.90
2007,12,04,23,37,7.90
2007,12,04,23,38,7.90
2007,12,04,23,39,7.90
2007,12,04,23,40,7.90
2007,12,04,23,41,7.90
2007,12,04,23,42,7.90
2007,12,04,23,43,7.90
2007,12,04,23,44,7.90
2007,12,04,23,45,7.90
2007,12,04,23,46,7.90
2007,12,04,23,47,7.90
2007,12,04,23,48,7.90
2007,12,04,23,49,7.90
2007,12,04,23,50,7.90
2007,12,04,23,51,7.90
2007,12,04,23,52,7.90
2007,12,04,23,53,7.90
2007,12,04,23,54,7.90
2007,12,04,23,55,7.90
2007,12,04,23,56,7.90
2007,12,04,23,57,7.90
2007,12,04,23,58,7.90
2007,12,04,23,59,7.90
